Regional Weather Roundup
Issued by NWS Kansas City/Pleasant Hill, MO

Home | Current Version | Previous Version | Graphics & Text | Print | Product List | Glossary Off
Versions: 1 2 3 4 5 6 7 8 9 10 11 12 13 14 15 16 17 18 19 20 21 22 23 24 25 26 27 28 29 30 31 32 33 34 35 36 37 38 39 40 41 42 43 44 45 46 47 48 49 50

000
ASUS43 KEAX 010411
RWREAX

WEATHER ROUNDUP FOR EASTERN KANSAS AND NORTHWEST MISSOURI
NATIONAL WEATHER SERVICE KANSAS CITY/PLEASANT HILL MO
1000 PM CST SAT JAN 31 2015

KSZ040-057-103>105-MOZ028-029-037-043-010500-
...KANSAS CITY METROPOLITAN AREA...

CITY           SKY/WX    TMP DP  RH WIND       PRES   REMARKS
K.C. INTL      LGT SNOW  33  33 100 SE10      29.90F FOG     WCI  25
K.C. DOWNTOWN  LGT SNOW  35  32  88 E8        29.91F FOG     WCI  29
LEES SUMMIT    LGT SNOW  34  32  92 E8        29.91F FOG     WCI  27
OLATHE - IXD   LGT RAIN  34  33  96 SE8       29.90F FOG     WCI  27
OLATHE - OJC   LGT SNOW  34  33  96 SE7       29.88F FOG     WCI  28
LAWRENCE       LGT RAIN  33  32  96 SE7       29.89F FOG     WCI  27

$$

MOZ001>008-011>017-020>025-030>033-038>040-044>046-053-054-010500-
...NORTHERN AND CENTRAL MISSOURI...

CITY           SKY/WX    TMP DP  RH WIND       PRES   REMARKS
ST. JOSEPH     LGT SNOW  32  32 100 SE5       29.92F FOG     WCI  27
MOSBY          RAIN      34  34 100 SE7       29.93F WCI  28
WARRENSBURG    RAIN      36  32  87 E6        29.94F WCI  31
WHITEMAN AFB   LGT RAIN  36  33  92 E6        29.93F WCI  31
CLINTON        LGT RAIN  37  36  93 SE7       29.92F WCI  32
SEDALIA        LGT RAIN  36  33  89 SE12      29.95F WCI  28
WARSAW         NOT AVBL
MARSHALL       MIX PCPN  39  36  87 SE7       29.98F WCI  34
CHILLICOTHE      N/A     34  32  92 SE7       29.97F WCI  28
MOBERLY        LGT RAIN  37  32  81 SE16G23   30.00F WCI  28
KIRKSVILLE     LGT SNOW  33  33 100 SE10      29.99F VSB 3/4 WCI  25

$$

MOZ041-047>049-056>058-063>065-088>090-097-010500-
...EASTERN AND SOUTHERN MISSOURI...

CITY           SKY/WX    TMP DP  RH WIND       PRES   REMARKS
ST. LOUIS INTL CLOUDY    41  25  53 SE12      30.09F WCI  34
SPIRIT OF STL  CLOUDY    40  24  53 SE9       30.06F WCI  34
COLUMBIA       MIX PCPN  37  31  78 SE8       29.97F WCI  31
JEFFERSON CITY CLOUDY    38  28  67 SE8       29.99F WCI  32
MEXICO         CLOUDY    39  36  87 SE10G21   30.02  WCI  32
HANNIBAL       CLOUDY    36  34  93 SE6       30.04F FOG     WCI  31
ROLLA          CLOUDY    38  21  50 SE12G23   29.97F WCI  30
LEBANON        MIX PCPN  39  27  60 SE14G25   29.94F WCI  31
OSAGE BEACH    CLOUDY    41  23  48 S9        29.95R
SPRINGFIELD    LGT RAIN  40  28  62 S23G31    29.90F WCI  30
BRANSON        LGT RAIN  37  32  81 SE14G24   29.97F WCI  29
NEVADA         RAIN      37  36  93 SE6       29.91F WCI  33
JOPLIN         LGT RAIN  40  37  89 S12       29.91F FOG     WCI  33
WEST PLAINS    CLOUDY    38  24  57 SE10      30.05F WCI  31

$$

IAZ060-094-KSZ022-034>040-054-083-096-NEZ052-066-093-010500-
...KANSAS...SOUTHEAST NEBRASKA AND IOWA...

CITY           SKY/WX    TMP DP  RH WIND       PRES   REMARKS
TOPEKA         LGT SNOW  33  32  96 SE7       29.89F FOG     WCI  27
MANHATTAN      LGT RAIN  35  34  96 S7        29.84F WCI  29
EMPORIA        LGT RAIN  37  37 100 S10       29.85F FOG     WCI  30
CHANUTE        LGT RAIN  39  38  96 S9        29.88F WCI  33
WICHITA        LGT RAIN  40  39  97 S13       29.83F FOG     WCI  32
OMAHA          LGT SNOW  33  32  96 E3        29.90F VSB 1
LINCOLN        LGT SNOW  33  31  92 E3        29.87F VSB 1
FALLS CITY     LGT SNOW  32  32 100 SE8       29.88F VSB 3/4 WCI  25
LAMONI         LGT SNOW  32  32 100 SE10      29.93F VSB 3/4 WCI  24
DES MOINES     LGT SNOW  34  31  88 E7        29.97F VSB 3/4 WCI  28

$$



USA.gov is the U.S. government's official web portal to all federal, state and local government web resources and services.